Showing default

HERMES 4, 63833

Orbit data source: Space-Track

HERMES 4, 63833 is a payload satellite owned by ASI (IT) in SSO that was launched on Sat, 15 Mar 2025 UTC via an FALCON 9 launch vehicle from the Air Force Western Test Range (AFWTR). Payload-class satellites include a variety of spacecraft equipped with specific instruments for various scientific and technological missions. These include communications satellites like Starlink; space stations such as the ISS; scientific satellites like the Hubble; Earth observation satellites from companies like Planet Labs, Umbra, and HawkEye 360; GPS; miniature CubeSats for education and research; and military/defense satellites.

Loading next visibility...
Identifier
63833, 2025-052BP
Orbit
SSO
Country
Flag of ITIT
Related business
Manufacturer
MILANP/INAFI
Mission
Operational Civil Astronomy
Bus & Motor
CUBESAT 3U, Unknown motor
Mass
5 kg wet, 5 kg dry
Launch date (UTC)
2025-03-15 (9 months ago)
Launch vehicle
FALCON 9
Launch site
Air Force Western Test Range (AFWTR)
Object type
Payload
Rocket body
Debris
Shape & HBR
Box, 14.5 m
Radar Cross Section
0.035 m², Small (<0.1 m²)

Expand to show TLE details & history
Last TLE update: 17 hours ago

TLE from 17 hours ago
0 HERMES 4
1 63833U 25052BP  25347.23730456  .00027864  00000-0  11784-2 0  9998
2 63833  97.4087 237.7193 0004873 120.9674 239.2042 15.23166455 41570
Epoch: 2025-12-13T05:41Z
TLE epoch observation values (Epoch: 2025-12-13T05:41:43.113Z)
Latitude
-0.00007°
Longitude
70.12221°
Altitude
501.108 km
Speed
7.613 km/s
True Right ascension
15h 50m 52s
True Declination
0° 00' 00"
Sunlit
Object was in daylight at epoch
Visualization orbit readout
Latitude
Unknown
Longitude
Unknown
Altitude
Unknown
Speed
Unknown
Apparent Right ascension
Unknown
Apparent Declination
Unknown
Sunlit
N/A
Visualization observer readout
Local Sidereal Time
21:19:50
Azimuth
Unknown
Elevation
Unknown
Doppler factor
Unknown
Orbital elements
Apogee altitude
496.607 km
Perigee altitude
489.91 km
Semi-major axis
6,871.395 km
Eccentricity
0.00049
Inclination
97.4087°
RAAN
237.7193°
Arg. of periapsis
120.9674°
True anomaly
239.15625°
Mean anomaly
239.2042°
Eccentric anomaly
239.18022°
Mean motion
3.81045 °/min
Orbital period
94.48 mins
BSTAR
0.0011784
Loading maneuver chart data...
Computing Atmospheric mass density...
Loading historical data...
Loading historical data...
Loading historical data...
Loading historical data...
Loading historical data...
Loading historical data...
Loading historical data...

Documentation

Showing up to 5 results
|